KF5JED-13 Weather Reports


time (UTC)temp
F
wind
direction
speed
knots
gust
knots
rain 1hr
in
rain 24hr
in
rain mn
in
humidity
%
barometer
mb
20260903233408 78 79 9.6 13.0 0.00 0.26 0.26 58 1013.6
20260903232902 78 82 9.6 11.3 0.00 0.26 0.26 63 1013.6
20260903232357 80 80 7.8 13.9 0.00 0.26 0.26 56 1013.6
20260903231856 80 112 10.4 13.9 0.00 0.26 0.26 59 1013.9
20260903231351 80 138 10.4 16.5 0.00 0.26 0.26 57 1014.0
20260903230847 81 142 8.7 14.8 0.00 0.26 0.26 57 1013.6
20260903230342 85 157 12.2 15.6 0.00 0.26 0.26 50 1013.7
20260903225838 86 148 6.1 7.8 0.00 0.26 0.26 46 1013.6
20260903225334 86 101 3.5 7.8 0.00 0.26 0.26 43 1013.7
20260903224830 85 102 6.1 9.6 0.00 0.26 0.26 47 1013.3
20260903224326 83 130 3.5 6.1 0.00 0.26 0.26 51 1013.8
20260903223822 83 70 7.0 10.4 0.00 0.26 0.26 49 1013.6
20260903223320 84 76 7.8 12.2 0.00 0.26 0.26 48 1013.8
20260903222815 80 101 5.2 11.3 0.00 0.26 0.26 55 1014.1
20260903222314 76 89 7.0 7.8 0.02 0.26 0.26 69 1014.1
20260903221809 75 354 5.2 9.6 0.61 0.26 0.26 68 1014.0
20260903221308 74 62 9.6 21.7 1.21 0.25 0.25 70 1013.9
20260903220806 77 127 5.2 13.0 0.92 0.15 0.15 65 1015.0
20260903220301 78 248 16.5 21.7 0.31 0.05 0.05 84 1013.8
20260903215753 92 284 8.7 14.8 0.00 0.00 0.00 34 1013.6
20260903215250 93 339 6.1 14.8 0.00 0.00 0.00 31 1013.1
20260903214747 93 328 7.8 13.9 0.00 0.00 0.00 31 1013.3
20260903214239 94 301 7.0 13.0 0.00 0.00 0.00 29 1013.2
20260903213732 94 304 5.2 11.3 0.00 0.00 0.00 29 1013.1
20260903213228 94 246 7.8 12.2 0.00 0.00 0.00 29 1013.2
20260903212724 98 210 8.7 10.4 0.00 0.00 0.00 28 1013.2
20260903212220 99 189 8.7 12.2 0.00 0.00 0.00 27 1012.9
20260903211713 101 224 7.8 14.8 0.00 0.00 0.00 25 1013.1
20260903211210 101 183 3.5 7.0 0.00 0.00 0.00 25 1013.1
20260903210706 101 311 3.5 4.3 0.00 0.00 0.00 25 1013.0
20260903210202 100 245 3.5 8.7 0.00 0.00 0.00 25 1013.3
20260903205701 100 209 8.7 13.9 0.00 0.00 0.00 25 1013.3
20260903205200 101 212 10.4 15.6 0.00 0.00 0.00 26 1013.5
20260903204656 101 251 1.7 5.2 0.00 0.00 0.00 25 1013.7
20260903204152 101 244 3.5 6.1 0.00 0.00 0.00 25 1013.6
20260903203647 100 142 4.3 10.4 0.00 0.00 0.00 26 1013.7
20260903203142 101 186 4.3 7.8 0.00 0.00 0.00 25 1013.9
20260903202637 101 205 6.1 7.0 0.00 0.00 0.00 25 1013.7
20260903202132 102 186 7.0 11.3 0.00 0.00 0.00 25 1013.9
20260903201626 101 169 6.1 12.2 0.00 0.00 0.00 26 1014.0
20260903201126 100 213 5.2 9.6 0.00 0.00 0.00 26 1013.8
20260903200621 99 217 13.9 16.5 0.00 0.00 0.00 26 1013.9
20260903200116 99 207 8.7 13.0 0.00 0.00 0.00 27 1014.2
20260903195612 101 163 4.3 8.7 0.00 0.00 0.00 25 1014.1
20260903195108 99 151 3.5 5.2 0.00 0.00 0.00 27 1014.2
20260903194602 101 163 3.5 9.6 0.00 0.00 0.00 26 1014.3
20260903194057 100 212 8.7 10.4 0.00 0.00 0.00 27 1014.6
20260903193554 99 216 9.6 11.3 0.00 0.00 0.00 27 1014.5
20260903193049 100 175 3.5 5.2 0.00 0.00 0.00 27 1014.5
20260903192545 99 206 8.7 12.2 0.00 0.00 0.00 27 1014.5
20260903192040 99 203 11.3 18.2 0.00 0.00 0.00 27 1014.5
20260903191536 99 147 4.3 8.7 0.00 0.00 0.00 28 1014.6
20260903191030 100 168 1.7 7.0 0.00 0.00 0.00 27 1014.8
20260903190524 98 301 5.2 5.2 0.00 0.00 0.00 29 1014.7
20260903190024 98 259 7.8 14.8 0.00 0.00 0.00 29 1014.9
20260903185519 98 268 3.5 7.0 0.00 0.00 0.00 29 1015.1
20260903185015 98 230 7.0 10.4 0.00 0.00 0.00 29 1015.1
20260903184506 97 246 3.5 7.8 0.00 0.00 0.00 29 1015.3
20260903184005 98 287 3.5 5.2 0.00 0.00 0.00 28 1015.2
20260903183500 98 230 7.0 9.6 0.00 0.00 0.00 28 1015.3
20260903182959 97 235 7.8 10.4 0.00 0.00 0.00 29 1015.5
20260903182458 97 228 6.1 8.7 0.00 0.00 0.00 29 1015.6
20260903181954 97 237 7.0 10.4 0.00 0.00 0.00 30 1015.7
20260903181448 96 238 5.2 13.0 0.00 0.00 0.00 30 1015.8
20260903180947 96 240 10.4 13.9 0.00 0.00 0.00 30 1015.7
20260903180443 96 219 6.1 7.8 0.00 0.00 0.00 31 1015.8
20260903175942 96 214 9.6 15.6 0.00 0.00 0.00 30 1015.8
20260903175437 96 230 5.2 7.8 0.00 0.00 0.00 31 1016.0
20260903174936 96 248 5.2 11.3 0.00 0.00 0.00 31 1016.0
20260903174432 96 239 11.3 12.2 0.00 0.00 0.00 31 1015.9
20260903173931 95 224 11.3 17.4 0.00 0.00 0.00 32 1016.2
20260903173426 95 218 6.1 17.4 0.00 0.00 0.00 32 1016.1
20260903172922 96 216 13.0 15.6 0.00 0.00 0.00 32 1015.9
20260903172416 96 215 9.6 14.8 0.00 0.00 0.00 32 1016.0
20260903171912 95 210 13.9 17.4 0.00 0.00 0.00 33 1016.0
20260903171407 95 209 9.6 16.5 0.00 0.00 0.00 33 1015.9
20260903170901 95 205 6.1 13.0 0.00 0.00 0.00 33 1016.1
20260903170356 95 210 11.3 18.2 0.00 0.00 0.00 33 1016.0
20260903165855 94 229 11.3 15.6 0.00 0.00 0.00 33 1016.1
20260903165349 93 215 14.8 16.5 0.00 0.00 0.00 33 1016.2
20260903164844 93 234 11.3 13.9 0.00 0.00 0.00 33 1016.2
20260903164339 94 221 9.6 14.8 0.00 0.00 0.00 33 1015.9
20260903163838 94 223 10.4 16.5 0.00 0.00 0.00 33 1016.1
20260903163335 93 217 12.2 14.8 0.00 0.00 0.00 33 1016.2
20260903162831 93 216 13.9 16.5 0.00 0.00 0.00 33 1016.1
20260903162327 93 216 14.8 17.4 0.00 0.00 0.00 34 1016.1
20260903161823 92 211 9.6 12.2 0.00 0.00 0.00 35 1016.0
20260903161318 92 211 8.7 12.2 0.00 0.00 0.00 35 1016.0
20260903160814 92 212 12.2 14.8 0.00 0.00 0.00 36 1015.9
20260903160312 91 217 11.3 13.0 0.00 0.00 0.00 37 1016.3
20260903155811 91 227 8.7 11.3 0.00 0.00 0.00 38 1016.2
20260903155307 90 239 9.6 12.2 0.00 0.00 0.00 39 1016.3
20260903154801 89 219 7.0 13.9 0.00 0.00 0.00 40 1016.3
20260903154258 89 239 5.2 13.9 0.00 0.00 0.00 40 1016.1
20260903153753 88 214 11.3 11.3 0.00 0.00 0.00 41 1016.2
20260903153249 87 226 7.8 13.0 0.00 0.00 0.00 43 1016.1
20260903152745 87 213 8.7 13.0 0.00 0.00 0.00 43 1016.2
20260903152241 86 237 7.0 10.4 0.00 0.00 0.00 44 1016.3
20260903151741 85 217 7.8 10.4 0.00 0.00 0.00 45 1016.3
20260903151236 85 213 9.6 10.4 0.00 0.00 0.00 46 1016.2
20260903150731 82 227 5.2 9.6 0.00 0.00 0.00 50 1016.1
20260903150225 82 226 6.1 8.7 0.00 0.00 0.00 50 1016.2
20260903145725 81 217 5.2 9.6 0.00 0.00 0.00 49 1016.2
20260903145221 81 215 7.8 11.3 0.00 0.00 0.00 49 1016.3
20260903144719 80 224 7.0 10.4 0.00 0.00 0.00 50 1016.5
20260903144215 80 211 10.4 11.3 0.00 0.00 0.00 51 1016.3
20260903143711 79 198 7.0 10.4 0.00 0.00 0.00 52 1016.3
20260903143207 78 216 8.7 12.2 0.00 0.00 0.00 52 1016.3
20260903142702 78 200 7.0 8.7 0.00 0.00 0.00 53 1016.3
20260903142159 77 206 7.0 8.7 0.00 0.00 0.00 53 1016.3
20260903141654 77 208 5.2 10.4 0.00 0.00 0.00 53 1016.3
20260903141149 76 204 8.7 8.7 0.00 0.00 0.00 54 1016.6
20260903140644 76 212 7.0 7.8 0.00 0.00 0.00 56 1016.6
20260903140140 75 206 4.3 8.7 0.00 0.00 0.00 57 1016.6
20260903135635 75 198 6.1 7.0 0.00 0.00 0.00 57 1016.2
20260903135130 75 197 5.2 8.7 0.00 0.00 0.00 57 1016.3
20260903134628 75 191 7.8 8.7 0.00 0.00 0.00 57 1016.3
20260903134120 75 195 7.0 9.6 0.00 0.00 0.00 56 1016.5
20260903133617 75 189 4.3 9.6 0.00 0.00 0.00 57 1016.2
20260903133113 74 195 4.3 10.4 0.00 0.00 0.00 57 1016.2
20260903132608 73 182 5.2 8.7 0.00 0.00 0.00 58 1016.2
20260903132107 73 203 5.2 7.8 0.00 0.00 0.00 60 1016.3
20260903131602 72 188 5.2 7.0 0.00 0.00 0.00 60 1016.2
20260903131101 71 170 3.5 7.0 0.00 0.00 0.00 62 1016.1
20260903130556 70 178 5.2 6.1 0.00 0.00 0.00 64 1015.9
20260903130051 69 178 5.2 6.1 0.00 0.00 0.00 65 1016.1
20260903125549 69 185 3.5 7.0 0.00 0.00 0.00 66 1016.1
20260903125044 69 204 3.5 5.2 0.00 0.00 0.00 66 1016.0
20260903124539 68 198 3.5 5.2 0.00 0.00 0.00 66 1015.7
20260903124038 68 208 5.2 5.2 0.00 0.00 0.00 66 1015.7
20260903123538 68 207 5.2 6.1 0.00 0.00 0.00 66 1015.9
20260903123037 68 210 4.3 7.0 0.00 0.00 0.00 66 1015.7
20260903122531 68 201 5.2 7.0 0.00 0.00 0.00 65 1015.8
20260903122031 68 204 5.2 7.0 0.00 0.00 0.00 65 1015.6
20260903121526 69 204 3.5 7.8 0.00 0.00 0.00 64 1015.7
20260903121022 68 200 5.2 7.0 0.00 0.00 0.00 65 1015.5
20260903120520 68 190 4.3 7.0 0.00 0.00 0.00 64 1015.5
20260903120015 69 182 7.0 7.8 0.00 0.00 0.00 63 1015.5
20260903115513 70 194 6.1 8.7 0.00 0.00 0.00 61 1015.3
20260903115008 70 198 8.7 9.6 0.00 0.00 0.00 60 1015.6
20260903114504 70 196 5.2 8.7 0.00 0.00 0.00 61 1015.6
20260903113959 68 202 5.2 6.1 0.00 0.00 0.00 62 1015.7
20260903113455 68 180 4.3 6.1 0.00 0.00 0.00 63 1015.5
20260903112950 69 170 5.2 5.2 0.00 0.00 0.00 61 1015.5
20260903112446 69 184 4.3 8.7 0.00 0.00 0.00 61 1015.6
20260903111945 68 178 5.2 5.2 0.00 0.00 0.00 64 1015.6
20260903111444 68 157 3.5 4.3 0.00 0.00 0.00 64 1015.5
20260903110941 68 161 3.5 5.2 0.00 0.00 0.00 63 1015.5
20260903110437 69 187 3.5 5.2 0.00 0.00 0.00 62 1015.3
20260903105932 69 171 5.2 8.7 0.00 0.00 0.00 60 1015.1
20260903105427 69 169 6.1 7.8 0.00 0.00 0.00 61 1015.2
20260903104926 69 183 5.2 7.8 0.00 0.00 0.00 62 1015.2
20260903104425 69 187 3.5 6.1 0.00 0.00 0.00 62 1015.5
20260903103922 69 169 5.2 7.0 0.00 0.00 0.00 62 1015.6
20260903103418 69 186 4.3 7.0 0.00 0.00 0.00 62 1015.7
20260903102913 69 185 7.0 7.0 0.00 0.00 0.00 61 1015.7
20260903102408 69 185 4.3 6.1 0.00 0.00 0.00 61 1015.7
20260903101908 69 189 4.3 6.1 0.00 0.00 0.00 62 1015.8
20260903101402 69 185 3.5 5.2 0.00 0.00 0.00 62 1015.7
20260903100858 69 190 3.5 5.2 0.00 0.00 0.00 63 1015.8
20260903100354 69 190 5.2 5.2 0.00 0.00 0.00 62 1015.8
20260903095850 69 175 4.3 7.8 0.00 0.00 0.00 62 1015.7
20260903095350 69 180 5.2 7.8 0.00 0.00 0.00 61 1015.9
20260903094845 69 161 5.2 6.1 0.00 0.00 0.00 63 1015.6
20260903094340 68 187 3.5 4.3 0.00 0.00 0.00 64 1015.8
20260903093836 68 196 2.6 3.5 0.00 0.00 0.00 65 1015.9
20260903093331 68 171 3.5 4.3 0.00 0.00 0.00 65 1016.0
20260903092826 68 163 2.6 3.5 0.00 0.00 0.00 66 1016.0
20260903092321 68 163 3.5 4.3 0.00 0.00 0.00 66 1015.9
20260903091819 68 169 4.3 5.2 0.00 0.00 0.00 64 1015.8
20260903091313 69 175 2.6 4.3 0.00 0.00 0.00 63 1016.1
20260903090809 69 182 3.5 5.2 0.00 0.00 0.00 62 1015.7
20260903090309 70 189 4.3 7.0 0.00 0.00 0.00 61 1015.9
20260903085807 70 189 5.2 6.1 0.00 0.00 0.00 60 1015.9
20260903085305 70 192 2.6 5.2 0.00 0.00 0.00 59 1015.8
20260903084800 71 206 4.3 5.2 0.00 0.00 0.00 58 1016.0
20260903084254 72 185 3.5 5.2 0.00 0.00 0.00 57 1016.0
20260903083750 73 181 4.3 7.0 0.00 0.00 0.00 56 1016.0
20260903083250 73 160 6.1 9.6 0.00 0.00 0.00 55 1016.0
20260903082749 74 171 7.8 10.4 0.00 0.00 0.00 54 1015.9
20260903082240 74 163 7.8 10.4 0.00 0.00 0.00 54 1015.8
20260903081739 74 163 8.7 12.2 0.00 0.00 0.00 53 1015.8
20260903081230 75 171 8.7 13.0 0.00 0.00 0.00 52 1015.7
20260903080725 75 169 9.6 13.9 0.00 0.00 0.00 51 1015.9
20260903080223 76 180 9.6 13.0 0.00 0.00 0.00 51 1015.7
20260903075722 76 180 11.3 14.8 0.00 0.00 0.00 51 1015.8
20260903075212 76 185 7.0 13.9 0.00 0.00 0.00 50 1015.8
20260903074710 76 170 13.0 14.8 0.00 0.00 0.00 51 1015.9
20260903074207 75 162 7.0 13.0 0.00 0.00 0.00 51 1015.8
20260903073701 75 168 8.7 13.0 0.00 0.00 0.00 51 1015.7
20260903073156 74 172 9.6 10.4 0.00 0.00 0.00 52 1015.8
20260903072652 75 167 8.7 10.4 0.00 0.00 0.00 52 1015.9
20260903072149 75 153 7.0 10.4 0.00 0.00 0.00 51 1016.0
20260903071644 75 170 8.7 10.4 0.00 0.00 0.00 52 1015.7
20260903071139 74 154 7.0 11.3 0.00 0.00 0.00 53 1015.9
20260903070634 75 163 7.0 10.4 0.00 0.00 0.00 53 1015.9
20260903070130 75 155 7.8 10.4 0.00 0.00 0.00 53 1016.0
20260903065629 75 165 7.8 10.4 0.00 0.00 0.00 52 1015.9
20260903065124 75 160 7.8 10.4 0.00 0.00 0.00 52 1015.8
20260903064624 76 149 8.7 9.6 0.00 0.00 0.00 51 1016.0
20260903064119 75 168 7.0 11.3 0.00 0.00 0.00 52 1016.0
20260903063615 75 157 7.8 11.3 0.00 0.00 0.00 52 1016.0
20260903063110 76 156 7.8 11.3 0.00 0.00 0.00 52 1016.0
20260903062605 75 154 5.2 11.3 0.00 0.00 0.00 53 1015.9
20260903062101 75 150 10.4 10.4 0.00 0.00 0.00 54 1016.0
20260903061556 74 166 7.0 7.8 0.00 0.00 0.00 56 1016.0
20260903061055 74 170 5.2 8.7 0.00 0.00 0.00 56 1015.9
20260903060555 74 166 7.8 7.8 0.00 0.00 0.00 56 1016.1
20260903060050 73 173 5.2 7.8 0.00 0.00 0.00 58 1015.9
20260903055547 73 163 5.2 6.1 0.00 0.00 0.00 60 1015.9
20260903055047 73 160 4.3 6.1 0.00 0.00 0.00 60 1015.9
20260903054542 73 164 5.2 7.0 0.00 0.00 0.00 59 1016.0
20260903054037 74 158 5.2 7.8 0.00 0.00 0.00 58 1015.8
20260903053532 73 159 6.1 7.8 0.00 0.00 0.00 59 1015.9
20260903053029 73 160 5.2 7.0 0.00 0.00 0.00 60 1016.1
20260903052524 73 158 5.2 6.1 0.00 0.00 0.00 60 1016.0
20260903052019 74 172 4.3 5.2 0.00 0.00 0.00 58 1015.8
20260903051514 75 165 7.0 7.0 0.00 0.00 0.00 57 1015.9
20260903051010 75 160 4.3 7.0 0.00 0.00 0.00 55 1015.9
20260903050509 77 163 5.2 7.8 0.00 0.00 0.00 52 1016.0
20260903050004 78 160 8.7 9.6 0.00 0.02 0.02 51 1016.0
20260903045459 79 155 9.6 10.4 0.00 0.02 0.02 48 1016.0
20260903044955 80 161 9.6 12.2 0.00 0.02 0.02 48 1015.8
20260903044451 79 148 9.6 12.2 0.00 0.02 0.02 49 1015.8
20260903043947 78 152 7.0 9.6 0.00 0.02 0.02 52 1015.8
20260903043442 78 145 6.1 8.7 0.00 0.02 0.02 54 1015.7
20260903042940 78 155 4.3 9.6 0.00 0.02 0.02 55 1015.8
20260903042436 78 136 4.3 8.7 0.00 0.02 0.02 55 1015.7
20260903041932 78 138 7.0 10.4 0.00 0.02 0.02 55 1015.8
20260903041428 78 142 6.1 11.3 0.00 0.02 0.02 56 1015.5
20260903040924 77 144 5.2 9.6 0.00 0.02 0.02 57 1015.7
20260903040423 78 134 5.2 9.6 0.00 0.02 0.02 57 1015.7
20260903035919 78 143 3.5 7.0 0.00 0.02 0.02 57 1016.0
20260903035415 78 155 5.2 7.8 0.00 0.02 0.02 56 1015.9
20260903034914 78 143 5.2 9.6 0.00 0.02 0.02 56 1016.0
20260903034409 78 136 7.0 7.8 0.00 0.02 0.02 56 1015.8
20260903033905 78 135 5.2 8.7 0.00 0.02 0.02 57 1015.8
20260903033400 78 140 5.2 8.7 0.00 0.02 0.02 57 1015.8
20260903032854 79 148 7.8 8.7 0.00 0.02 0.02 55 1015.7
20260903032350 79 156 6.1 8.7 0.00 0.02 0.02 54 1016.0
20260903031845 79 142 5.2 7.8 0.00 0.02 0.02 55 1015.8
20260903031344 79 145 5.2 8.7 0.00 0.02 0.02 55 1015.7
20260903030840 79 140 4.3 8.7 0.00 0.02 0.02 55 1015.9
20260903030335 79 141 5.2 8.7 0.00 0.02 0.02 54 1015.8
20260903025826 79 145 3.5 7.8 0.00 0.02 0.02 54 1015.5
20260903025321 78 137 5.2 7.0 0.00 0.02 0.02 54 1015.3
20260903024821 79 141 6.1 8.7 0.00 0.02 0.02 54 1015.5
20260903024320 79 134 5.2 8.7 0.00 0.02 0.02 53 1015.5
20260903023816 79 139 7.8 7.8 0.00 0.02 0.02 53 1015.3
20260903023312 78 141 6.1 7.0 0.00 0.02 0.02 55 1015.3
20260903022806 78 132 3.5 7.8 0.00 0.02 0.02 55 1015.2
20260903022306 78 135 2.6 4.3 0.00 0.02 0.02 56 1015.6
20260903021759 78 105 2.6 5.2 0.00 0.02 0.02 55 1015.6
20260903021254 79 142 4.3 5.2 0.00 0.02 0.02 53 1015.5
20260903020749 80 138 4.3 7.0 0.00 0.02 0.02 51 1015.6
20260903020243 80 129 5.2 6.1 0.00 0.02 0.02 51 1015.5
20260903015739 80 126 4.3 7.0 0.00 0.02 0.02 51 1015.2
20260903015234 80 137 2.6 5.2 0.00 0.02 0.02 52 1015.5
20260903014729 80 142 3.5 5.2 0.00 0.02 0.02 51 1015.5
20260903014229 80 133 3.5 7.0 0.00 0.02 0.02 52 1015.5
20260903013724 80 132 4.3 5.2 0.00 0.02 0.02 53 1015.3
20260903013223 80 138 3.5 5.2 0.00 0.02 0.02 53 1015.3
20260903012721 81 148 5.2 5.2 0.00 0.02 0.02 52 1015.2
20260903012215 81 97 1.7 4.3 0.00 0.02 0.02 50 1015.5
20260903011710 82 126 2.6 4.3 0.00 0.02 0.02 50 1015.7
20260903011204 82 109 1.7 5.2 0.00 0.02 0.02 49 1015.3
20260903010659 82 110 1.7 5.2 0.00 0.02 0.02 49 1015.3
20260903010159 82 123 2.6 7.0 0.00 0.02 0.02 49 1015.2
20260903005653 82 122 3.5 5.2 0.00 0.02 0.02 49 1015.5
20260903005148 82 108 2.6 4.3 0.00 0.02 0.02 49 1015.3
20260903004644 82 141 4.3 8.7 0.00 0.02 0.02 48 1015.5
20260903004138 83 136 2.6 9.6 0.00 0.02 0.02 47 1015.2
20260903003633 83 128 7.0 8.7 0.00 0.02 0.02 47 1015.6
20260903003123 83 115 2.6 6.1 0.00 0.02 0.02 48 1015.6
20260903002618 84 133 3.5 8.7 0.00 0.02 0.02 47 1015.5
20260903002112 84 134 7.8 10.4 0.00 0.02 0.02 47 1015.8
20260903001607 84 134 7.8 9.6 0.00 0.02 0.02 47 1015.5
20260903001101 84 141 7.0 11.3 0.00 0.02 0.02 48 1015.6
20260903000557 84 138 7.0 13.0 0.00 0.02 0.02 47 1015.7
20260903000056 84 145 11.3 15.6 0.00 0.02 0.02 47 1015.7
20260902235555 84 141 7.0 13.0 0.00 0.02 0.02 50 1015.7
20260902235050 85 152 6.1 13.0 0.00 0.02 0.02 48 1015.8
20260902234545 86 156 6.1 13.9 0.00 0.02 0.02 46 1015.9
20260902234043 87 138 8.7 15.6 0.00 0.02 0.02 45 1015.8